N743GM TJIG-MDJB

Flight info

Callsign N743GM
Flight time 1h 40m
Altitude 6000
Route DDP B520 CDO
Aircraft S22T/L-SDGRY/S

Departure

Time 2026-04-20 00:35
Airport Fernando Luis Ribas Dominicci Airport (TJIG)

Arrival

Time 2026-04-20 02:16
Airport La Isabela International Airport (MDJB)
Time Latitude Longitude Altitude Speed Heading
2026-04-20 00:15 18.45556 -66.10223 13 ft 0 kts 81°
2026-04-20 00:18 18.45556 -66.10224 13 ft 0 kts 81°
2026-04-20 00:24 18.45556 -66.10225 13 ft 0 kts 81°
2026-04-20 00:31 18.45556 -66.10224 13 ft 2 kts 82°
2026-04-20 00:31 18.45557 -66.10208 13 ft 5 kts 85°
2026-04-20 00:32 18.45579 -66.10227 13 ft 16 kts 264°
2026-04-20 00:32 18.45560 -66.10384 12 ft 19 kts 263°
2026-04-20 00:32 18.45550 -66.10468 12 ft 12 kts 266°
2026-04-20 00:32 18.45552 -66.10564 12 ft 8 kts 326°
2026-04-20 00:33 18.45597 -66.10533 11 ft 0 kts 84°
2026-04-20 00:34 18.45613 -66.10401 11 ft 49 kts 82°
2026-04-20 00:34 18.45676 -66.09893 40 ft 87 kts 83°
2026-04-20 00:34 18.45775 -66.09149 71 ft 115 kts 84°
2026-04-20 00:35 18.46289 -66.08922 401 ft 125 kts 307°
2026-04-20 00:35 18.46419 -66.09721 932 ft 111 kts 262°
2026-04-20 00:35 18.46325 -66.10501 1255 ft 110 kts 260°
2026-04-20 00:35 18.46157 -66.11360 1266 ft 138 kts 245°
2026-04-20 00:36 18.45804 -66.12348 1183 ft 151 kts 264°
2026-04-20 00:36 18.45826 -66.13481 1327 ft 155 kts 274°
2026-04-20 00:36 18.45860 -66.14571 1582 ft 152 kts 271°
2026-04-20 00:36 18.45894 -66.15656 1819 ft 150 kts 271°
2026-04-20 00:37 18.45933 -66.16764 2065 ft 150 kts 272°
2026-04-20 00:37 18.45973 -66.17858 2306 ft 149 kts 271°
2026-04-20 00:37 18.46011 -66.18949 2554 ft 150 kts 271°
2026-04-20 00:37 18.46050 -66.20051 2795 ft 152 kts 271°
2026-04-20 00:38 18.46091 -66.21164 3040 ft 152 kts 271°
2026-04-20 00:38 18.46131 -66.22273 3286 ft 151 kts 271°
2026-04-20 00:38 18.46174 -66.23391 3530 ft 153 kts 272°
2026-04-20 00:38 18.46216 -66.24516 3772 ft 154 kts 271°
2026-04-20 00:39 18.46256 -66.25639 4013 ft 153 kts 271°
2026-04-20 00:39 18.46296 -66.26756 4254 ft 152 kts 272°
2026-04-20 00:39 18.46337 -66.27873 4504 ft 154 kts 271°
2026-04-20 00:39 18.46377 -66.28988 4753 ft 154 kts 271°
2026-04-20 00:40 18.46420 -66.30120 4999 ft 156 kts 271°
2026-04-20 00:40 18.46461 -66.31264 5240 ft 157 kts 272°
2026-04-20 00:40 18.46503 -66.32411 5481 ft 157 kts 272°
2026-04-20 00:40 18.46544 -66.33559 5729 ft 157 kts 272°
2026-04-20 00:41 18.46585 -66.34711 5969 ft 158 kts 272°
2026-04-20 00:41 18.46627 -66.35864 6223 ft 158 kts 272°
2026-04-20 00:41 18.46668 -66.37014 6471 ft 157 kts 272°
2026-04-20 00:41 18.46708 -66.38159 6702 ft 157 kts 273°
2026-04-20 00:42 18.46750 -66.39308 6930 ft 157 kts 273°
2026-04-20 00:42 18.46793 -66.40493 7005 ft 169 kts 273°
2026-04-20 00:42 18.46820 -66.41768 7017 ft 179 kts 269°
2026-04-20 00:42 18.46809 -66.43105 7014 ft 186 kts 271°
2026-04-20 00:43 18.46815 -66.44483 7017 ft 190 kts 270°
2026-04-20 00:43 18.46814 -66.45886 7015 ft 193 kts 270°
2026-04-20 00:43 18.46811 -66.47309 7015 ft 195 kts 271°
2026-04-20 00:43 18.46806 -66.48742 7016 ft 196 kts 270°
2026-04-20 00:44 18.46804 -66.50182 7014 ft 197 kts 270°
2026-04-20 00:44 18.46799 -66.51619 7018 ft 197 kts 270°
2026-04-20 00:44 18.46795 -66.53068 7013 ft 198 kts 270°
2026-04-20 00:44 18.46792 -66.54517 7017 ft 198 kts 270°
2026-04-20 00:45 18.46788 -66.55969 7015 ft 198 kts 270°
2026-04-20 00:45 18.46784 -66.57425 7011 ft 199 kts 270°
2026-04-20 00:45 18.46781 -66.58879 7016 ft 198 kts 271°
2026-04-20 00:45 18.46776 -66.60331 7014 ft 198 kts 270°
2026-04-20 00:46 18.46772 -66.61785 7015 ft 198 kts 270°
2026-04-20 00:46 18.46768 -66.63235 7017 ft 198 kts 270°
2026-04-20 00:46 18.46762 -66.64687 7012 ft 198 kts 270°
2026-04-20 00:46 18.46758 -66.66136 7014 ft 197 kts 271°
2026-04-20 00:47 18.46754 -66.67578 7010 ft 197 kts 271°
2026-04-20 00:47 18.46750 -66.69005 7010 ft 197 kts 271°
2026-04-20 00:47 18.46743 -66.70468 7011 ft 197 kts 271°
2026-04-20 00:47 18.46738 -66.71891 7008 ft 197 kts 271°
2026-04-20 00:48 18.46733 -66.73337 7010 ft 197 kts 271°
2026-04-20 00:48 18.46729 -66.74784 7005 ft 198 kts 270°
2026-04-20 00:48 18.46724 -66.76234 7007 ft 198 kts 270°
2026-04-20 00:48 18.46719 -66.77683 7005 ft 199 kts 270°
2026-04-20 00:49 18.46713 -66.79135 7006 ft 199 kts 270°
2026-04-20 00:49 18.46706 -66.80589 7003 ft 198 kts 270°
2026-04-20 00:49 18.46699 -66.82040 7006 ft 198 kts 270°
2026-04-20 00:49 18.46693 -66.83495 7002 ft 198 kts 271°
2026-04-20 00:50 18.46688 -66.84947 7002 ft 198 kts 270°
2026-04-20 00:50 18.46681 -66.86355 7002 ft 198 kts 270°
2026-04-20 00:50 18.46675 -66.87804 7000 ft 198 kts 271°
2026-04-20 00:50 18.46667 -66.89249 6999 ft 197 kts 271°
2026-04-20 00:51 18.46662 -66.90700 6998 ft 197 kts 270°
2026-04-20 00:51 18.46655 -66.92145 7001 ft 197 kts 271°
2026-04-20 00:51 18.46649 -66.93589 6998 ft 198 kts 270°
2026-04-20 00:51 18.46642 -66.95041 6997 ft 198 kts 271°
2026-04-20 00:52 18.46634 -66.96492 6995 ft 199 kts 271°
2026-04-20 00:52 18.46628 -66.97948 6999 ft 199 kts 270°
2026-04-20 00:52 18.46619 -66.99406 6996 ft 199 kts 271°
2026-04-20 00:52 18.46614 -67.00860 6994 ft 199 kts 270°
2026-04-20 00:53 18.46605 -67.02317 6995 ft 199 kts 270°
2026-04-20 00:53 18.46597 -67.03776 6992 ft 199 kts 270°
2026-04-20 00:53 18.46590 -67.05225 6995 ft 198 kts 271°
2026-04-20 00:53 18.46582 -67.06680 6993 ft 198 kts 270°
2026-04-20 00:54 18.46573 -67.08119 6992 ft 197 kts 270°
2026-04-20 00:54 18.46566 -67.09572 6991 ft 197 kts 270°
2026-04-20 00:54 18.46557 -67.11013 6989 ft 196 kts 270°
2026-04-20 00:54 18.46550 -67.12455 6989 ft 197 kts 271°
2026-04-20 00:55 18.46542 -67.13881 6988 ft 196 kts 271°
2026-04-20 00:55 18.46533 -67.15320 6989 ft 196 kts 271°
2026-04-20 00:55 18.46525 -67.16760 6993 ft 197 kts 271°
2026-04-20 00:55 18.46516 -67.18209 6992 ft 198 kts 270°
2026-04-20 00:56 18.46507 -67.19660 6991 ft 198 kts 270°
2026-04-20 00:56 18.46499 -67.21116 6994 ft 199 kts 270°
2026-04-20 00:56 18.46490 -67.22573 6995 ft 199 kts 270°
2026-04-20 00:56 18.46480 -67.24028 7008 ft 199 kts 270°
2026-04-20 00:57 18.46470 -67.25486 7010 ft 199 kts 270°
2026-04-20 00:57 18.46461 -67.26945 7010 ft 199 kts 270°
2026-04-20 00:57 18.46452 -67.28400 7004 ft 199 kts 270°
2026-04-20 00:57 18.46443 -67.29854 7006 ft 198 kts 270°
2026-04-20 00:58 18.46432 -67.31299 7001 ft 197 kts 270°
2026-04-20 00:58 18.46422 -67.32744 7005 ft 197 kts 270°
2026-04-20 00:58 18.46416 -67.33700 6998 ft 198 kts 270°
2026-04-20 00:59 18.46392 -67.36993 6993 ft 197 kts 270°
2026-04-20 00:59 18.46382 -67.38451 6991 ft 197 kts 271°
2026-04-20 00:59 18.46374 -67.39898 6992 ft 197 kts 270°
2026-04-20 00:59 18.46363 -67.41347 6993 ft 198 kts 270°
2026-04-20 01:00 18.46352 -67.42802 6989 ft 198 kts 270°
2026-04-20 01:00 18.46341 -67.44254 6990 ft 198 kts 269°
2026-04-20 01:00 18.46329 -67.45708 6990 ft 198 kts 270°
2026-04-20 01:00 18.46318 -67.47160 6985 ft 198 kts 270°
2026-04-20 01:01 18.46308 -67.48610 6985 ft 198 kts 270°
2026-04-20 01:01 18.46297 -67.50057 6988 ft 198 kts 270°
2026-04-20 01:01 18.46286 -67.51505 6985 ft 198 kts 270°
2026-04-20 01:01 18.46276 -67.52950 6989 ft 197 kts 270°
2026-04-20 01:02 18.46265 -67.54381 6987 ft 197 kts 270°
2026-04-20 01:02 18.46253 -67.55823 6992 ft 197 kts 270°
2026-04-20 01:02 18.46241 -67.57268 6989 ft 197 kts 270°
2026-04-20 01:02 18.46229 -67.58715 6989 ft 198 kts 270°
2026-04-20 01:03 18.46217 -67.60161 6989 ft 197 kts 270°
2026-04-20 01:03 18.46205 -67.61608 6994 ft 198 kts 270°
2026-04-20 01:03 18.46192 -67.63057 6994 ft 198 kts 269°
2026-04-20 01:03 18.46182 -67.64508 6991 ft 198 kts 270°
2026-04-20 01:04 18.46169 -67.65960 6988 ft 198 kts 270°
2026-04-20 01:04 18.46156 -67.67390 6990 ft 197 kts 270°
2026-04-20 01:04 18.46144 -67.68834 6990 ft 197 kts 270°
2026-04-20 01:04 18.46132 -67.70277 6991 ft 196 kts 270°
2026-04-20 01:05 18.46119 -67.71716 6992 ft 197 kts 270°
2026-04-20 01:05 18.46106 -67.73153 6993 ft 196 kts 270°
2026-04-20 01:05 18.46092 -67.74587 6990 ft 195 kts 270°
2026-04-20 01:05 18.46080 -67.76019 6988 ft 195 kts 270°
2026-04-20 01:06 18.46067 -67.77446 6990 ft 195 kts 270°
2026-04-20 01:06 18.46055 -67.78875 6988 ft 195 kts 270°
2026-04-20 01:06 18.46041 -67.80306 6989 ft 196 kts 270°
2026-04-20 01:06 18.46028 -67.81739 6987 ft 196 kts 270°
2026-04-20 01:07 18.46015 -67.83173 6987 ft 196 kts 270°
2026-04-20 01:07 18.46000 -67.84607 6986 ft 196 kts 270°
2026-04-20 01:07 18.45987 -67.86044 6988 ft 196 kts 270°
2026-04-20 01:07 18.45973 -67.87474 6986 ft 196 kts 270°
2026-04-20 01:08 18.45959 -67.88915 6988 ft 196 kts 270°
2026-04-20 01:08 18.45946 -67.90350 6986 ft 196 kts 270°
2026-04-20 01:08 18.45931 -67.91783 6988 ft 196 kts 270°
2026-04-20 01:08 18.45916 -67.93212 6989 ft 195 kts 270°
2026-04-20 01:09 18.45902 -67.94643 6988 ft 195 kts 270°
2026-04-20 01:09 18.45888 -67.96056 6986 ft 195 kts 270°
2026-04-20 01:09 18.45873 -67.97483 6986 ft 195 kts 270°
2026-04-20 01:09 18.45859 -67.98909 6986 ft 195 kts 270°
2026-04-20 01:10 18.45844 -68.00339 6986 ft 195 kts 270°
2026-04-20 01:10 18.45815 -68.03199 6988 ft 195 kts 270°
2026-04-20 01:10 18.45800 -68.04627 6984 ft 195 kts 270°
2026-04-20 01:11 18.45785 -68.06051 6982 ft 194 kts 270°
2026-04-20 01:11 18.45770 -68.07474 6982 ft 194 kts 270°
2026-04-20 01:11 18.45754 -68.08892 6987 ft 194 kts 269°
2026-04-20 01:11 18.45740 -68.10316 6986 ft 194 kts 269°
2026-04-20 01:12 18.45724 -68.11740 6985 ft 195 kts 270°
2026-04-20 01:12 18.45706 -68.13168 6984 ft 195 kts 270°
2026-04-20 01:12 18.45691 -68.14591 6985 ft 195 kts 270°
2026-04-20 01:12 18.45676 -68.16018 6987 ft 195 kts 270°
2026-04-20 01:13 18.45660 -68.17442 6985 ft 194 kts 270°
2026-04-20 01:13 18.45645 -68.18868 6986 ft 194 kts 270°
2026-04-20 01:13 18.45629 -68.20276 6984 ft 195 kts 270°
2026-04-20 01:13 18.45612 -68.21699 6988 ft 195 kts 270°
2026-04-20 01:14 18.45596 -68.23128 6986 ft 195 kts 270°
2026-04-20 01:14 18.45579 -68.24552 6986 ft 195 kts 270°
2026-04-20 01:14 18.45562 -68.25979 6985 ft 194 kts 270°
2026-04-20 01:14 18.45545 -68.27402 6985 ft 194 kts 270°
2026-04-20 01:15 18.45528 -68.28826 6986 ft 194 kts 270°
2026-04-20 01:15 18.45511 -68.30251 6984 ft 195 kts 270°
2026-04-20 01:15 18.45494 -68.31677 6986 ft 195 kts 270°
2026-04-20 01:15 18.45477 -68.33105 6987 ft 195 kts 270°
2026-04-20 01:16 18.45461 -68.34534 6985 ft 195 kts 269°
2026-04-20 01:16 18.45443 -68.35964 6986 ft 195 kts 270°
2026-04-20 01:16 18.45425 -68.37373 6985 ft 195 kts 270°
2026-04-20 01:16 18.45408 -68.38815 6987 ft 194 kts 270°
2026-04-20 01:17 18.45391 -68.40221 6986 ft 194 kts 270°
2026-04-20 01:17 18.45373 -68.41641 6986 ft 194 kts 270°
2026-04-20 01:17 18.45356 -68.43063 6986 ft 194 kts 269°
2026-04-20 01:17 18.45337 -68.44490 6986 ft 195 kts 269°
2026-04-20 01:18 18.45318 -68.45914 6985 ft 194 kts 270°
2026-04-20 01:18 18.45301 -68.47336 6984 ft 194 kts 269°
2026-04-20 01:18 18.45282 -68.48760 6986 ft 194 kts 270°
2026-04-20 01:18 18.45266 -68.50178 6986 ft 194 kts 270°
2026-04-20 01:19 18.45247 -68.51597 6985 ft 194 kts 269°
2026-04-20 01:19 18.45228 -68.53018 6988 ft 194 kts 269°
2026-04-20 01:19 18.45209 -68.54442 6991 ft 194 kts 270°
2026-04-20 01:19 18.45190 -68.55862 6988 ft 194 kts 269°
2026-04-20 01:20 18.45172 -68.57262 6986 ft 194 kts 269°
2026-04-20 01:20 18.45152 -68.58683 6988 ft 193 kts 270°
2026-04-20 01:20 18.45133 -68.60098 6987 ft 193 kts 269°
2026-04-20 01:20 18.45115 -68.61514 6986 ft 194 kts 269°
2026-04-20 01:21 18.45095 -68.62934 6988 ft 194 kts 269°
2026-04-20 01:21 18.45075 -68.64354 6990 ft 194 kts 269°
2026-04-20 01:21 18.45056 -68.65773 6989 ft 194 kts 270°
2026-04-20 01:21 18.45037 -68.67195 6987 ft 194 kts 269°
2026-04-20 01:22 18.45017 -68.68619 6986 ft 194 kts 269°
2026-04-20 01:22 18.44998 -68.70041 6987 ft 194 kts 269°
2026-04-20 01:22 18.44988 -68.71378 6991 ft 166 kts 272°
2026-04-20 01:22 18.44990 -68.72468 6974 ft 133 kts 270°
2026-04-20 01:23 18.44971 -68.73358 6941 ft 112 kts 270°
2026-04-20 01:23 18.44951 -68.74153 6807 ft 106 kts 270°
2026-04-20 01:23 18.44935 -68.74891 6701 ft 98 kts 270°
2026-04-20 01:23 18.44920 -68.75589 6571 ft 92 kts 269°
2026-04-20 01:24 18.44902 -68.76247 6429 ft 88 kts 268°
2026-04-20 01:24 18.45148 -68.76237 3750 ft 196 kts 34°
2026-04-20 01:24 18.46402 -68.76046 3717 ft 155 kts 351°
2026-04-20 01:24 18.47115 -68.76685 3774 ft 127 kts 291°
2026-04-20 01:25 18.46961 -68.77507 3648 ft 117 kts 224°
2026-04-20 01:25 18.46395 -68.78058 3600 ft 102 kts 220°
2026-04-20 01:25 18.46067 -68.78391 3548 ft 97 kts 218°
2026-04-20 01:25 18.45437 -68.79016 3390 ft 90 kts 218°
2026-04-20 01:26 18.45000 -68.79464 3286 ft 87 kts 230°
2026-04-20 01:26 18.44917 -68.79991 1689 ft 62 kts 313°
2026-04-20 01:26 18.44992 -68.80075 245 ft 11 kts 119°
2026-04-20 01:26 18.44951 -68.79998 238 ft 23 kts 116°
2026-04-20 01:27 18.44894 -68.79821 244 ft 29 kts 105°
2026-04-20 01:27 18.44834 -68.79591 232 ft 37 kts 107°
2026-04-20 01:27 18.44754 -68.79327 230 ft 38 kts 109°
2026-04-20 01:27 18.44686 -68.79132 235 ft 0 kts 46°
2026-04-20 01:30 18.45030 -68.78745 12628 ft 113 kts 33°
2026-04-20 01:30 18.45576 -68.78827 12955 ft 102 kts 297°
2026-04-20 01:30 18.45445 -68.79622 12993 ft 122 kts 236°
2026-04-20 01:30 18.44917 -68.80346 13058 ft 135 kts 247°
2026-04-20 01:31 18.44790 -68.81386 12914 ft 152 kts 272°
2026-04-20 01:31 18.44798 -68.82547 12784 ft 163 kts 271°
2026-04-20 01:31 18.44791 -68.83769 12637 ft 170 kts 271°
2026-04-20 01:31 18.44778 -68.85030 12470 ft 174 kts 271°
2026-04-20 01:32 18.44761 -68.86317 12294 ft 177 kts 270°
2026-04-20 01:32 18.44743 -68.87617 12107 ft 178 kts 270°
2026-04-20 01:32 18.44724 -68.88929 11920 ft 179 kts 271°
2026-04-20 01:32 18.44704 -68.90245 11729 ft 180 kts 270°
2026-04-20 01:33 18.44685 -68.91563 11539 ft 180 kts 270°
2026-04-20 01:33 18.44665 -68.92884 11347 ft 180 kts 271°
2026-04-20 01:33 18.44645 -68.94207 11157 ft 180 kts 270°
2026-04-20 01:33 18.44625 -68.95528 10966 ft 180 kts 270°
2026-04-20 01:34 18.44605 -68.96850 10779 ft 180 kts 271°
2026-04-20 01:34 18.44587 -68.98166 10591 ft 180 kts 270°
2026-04-20 01:34 18.44563 -68.99487 10405 ft 180 kts 270°
2026-04-20 01:34 18.44542 -69.00803 10220 ft 180 kts 270°
2026-04-20 01:35 18.44522 -69.02116 10034 ft 179 kts 270°
2026-04-20 01:35 18.44502 -69.03427 9842 ft 179 kts 270°
2026-04-20 01:35 18.44482 -69.04738 9634 ft 179 kts 270°
2026-04-20 01:35 18.44462 -69.06047 9433 ft 178 kts 270°
2026-04-20 01:36 18.44441 -69.07353 9232 ft 178 kts 270°
2026-04-20 01:36 18.44420 -69.08644 9034 ft 178 kts 270°
2026-04-20 01:36 18.44399 -69.09950 8833 ft 178 kts 270°
2026-04-20 01:36 18.44379 -69.11253 8633 ft 178 kts 269°
2026-04-20 01:37 18.44358 -69.12558 8436 ft 178 kts 269°
2026-04-20 01:37 18.44338 -69.13860 8240 ft 178 kts 270°
2026-04-20 01:37 18.44316 -69.15159 8046 ft 177 kts 270°
2026-04-20 01:37 18.44294 -69.16458 7851 ft 177 kts 270°
2026-04-20 01:38 18.44273 -69.17755 7660 ft 177 kts 269°
2026-04-20 01:38 18.44252 -69.19052 7465 ft 177 kts 269°
2026-04-20 01:38 18.44232 -69.20341 7274 ft 176 kts 269°
2026-04-20 01:38 18.44210 -69.21630 7084 ft 176 kts 269°
2026-04-20 01:39 18.44189 -69.22902 6995 ft 170 kts 269°
2026-04-20 01:39 18.44166 -69.24118 6985 ft 164 kts 269°
2026-04-20 01:39 18.44143 -69.25303 6983 ft 160 kts 269°
2026-04-20 01:39 18.44122 -69.26467 6980 ft 158 kts 269°
2026-04-20 01:40 18.44103 -69.27623 6982 ft 158 kts 269°
2026-04-20 01:40 18.44083 -69.28775 6982 ft 157 kts 269°
2026-04-20 01:40 18.44064 -69.29929 6979 ft 157 kts 269°
2026-04-20 01:40 18.44045 -69.31081 6983 ft 158 kts 269°
2026-04-20 01:41 18.44026 -69.32235 6978 ft 157 kts 269°
2026-04-20 01:41 18.44006 -69.33387 6983 ft 157 kts 269°
2026-04-20 01:41 18.43988 -69.34492 6980 ft 157 kts 269°
2026-04-20 01:41 18.43968 -69.35638 6982 ft 156 kts 269°
2026-04-20 01:42 18.43948 -69.36785 6980 ft 157 kts 269°
2026-04-20 01:42 18.43941 -69.37890 6810 ft 150 kts 270°
2026-04-20 01:42 18.43925 -69.38982 6635 ft 148 kts 269°
2026-04-20 01:42 18.43904 -69.40057 6464 ft 146 kts 269°
2026-04-20 01:43 18.43883 -69.41123 6292 ft 145 kts 269°
2026-04-20 01:43 18.43863 -69.42185 6117 ft 145 kts 269°
2026-04-20 01:43 18.43844 -69.43244 5939 ft 144 kts 269°
2026-04-20 01:43 18.43824 -69.44301 5766 ft 144 kts 269°
2026-04-20 01:44 18.43805 -69.45355 5595 ft 144 kts 269°
2026-04-20 01:44 18.43786 -69.46406 5426 ft 144 kts 269°
2026-04-20 01:44 18.43767 -69.47458 5254 ft 144 kts 269°
2026-04-20 01:44 18.43748 -69.48517 5089 ft 144 kts 269°
2026-04-20 01:45 18.43728 -69.49571 4921 ft 144 kts 269°
2026-04-20 01:45 18.43710 -69.50614 4752 ft 144 kts 269°
2026-04-20 01:45 18.43690 -69.51670 4573 ft 144 kts 269°
2026-04-20 01:45 18.43672 -69.52706 4407 ft 143 kts 269°
2026-04-20 01:46 18.43652 -69.53755 4235 ft 144 kts 269°
2026-04-20 01:46 18.43633 -69.54805 4064 ft 143 kts 269°
2026-04-20 01:46 18.43614 -69.55852 3892 ft 143 kts 269°
2026-04-20 01:46 18.43595 -69.56896 3724 ft 143 kts 269°
2026-04-20 01:47 18.43582 -69.57608 3610 ft 144 kts 269°
2026-04-20 01:47 18.43562 -69.58659 3440 ft 144 kts 269°
2026-04-20 01:47 18.43542 -69.59712 3272 ft 144 kts 269°
2026-04-20 01:47 18.43523 -69.60762 3099 ft 143 kts 269°
2026-04-20 01:48 18.43503 -69.61805 2925 ft 143 kts 269°
2026-04-20 01:48 18.43483 -69.62848 2751 ft 143 kts 269°
2026-04-20 01:48 18.43464 -69.63893 2581 ft 143 kts 269°
2026-04-20 01:48 18.43444 -69.64921 2495 ft 136 kts 269°
2026-04-20 01:49 18.43423 -69.65888 2483 ft 129 kts 269°
2026-04-20 01:49 18.43445 -69.66806 2478 ft 122 kts 285°
2026-04-20 01:49 18.43793 -69.67592 2482 ft 117 kts 298°
2026-04-20 01:49 18.44118 -69.68364 2489 ft 114 kts 297°
2026-04-20 01:50 18.44446 -69.69122 2484 ft 113 kts 297°
2026-04-20 01:50 18.44774 -69.69873 2485 ft 113 kts 297°
2026-04-20 01:50 18.45097 -69.70616 2481 ft 113 kts 297°
2026-04-20 01:50 18.45422 -69.71363 2491 ft 112 kts 297°
2026-04-20 01:51 18.45747 -69.72109 2486 ft 112 kts 297°
2026-04-20 01:51 18.46071 -69.72853 2488 ft 111 kts 297°
2026-04-20 01:51 18.46393 -69.73595 2486 ft 111 kts 297°
2026-04-20 01:51 18.46716 -69.74337 2485 ft 111 kts 297°
2026-04-20 01:52 18.47038 -69.75076 2483 ft 111 kts 297°
2026-04-20 01:52 18.47359 -69.75817 2486 ft 111 kts 297°
2026-04-20 01:52 18.47679 -69.76554 2484 ft 110 kts 298°
2026-04-20 01:52 18.47997 -69.77288 2482 ft 110 kts 298°
2026-04-20 01:53 18.48318 -69.78023 2486 ft 110 kts 297°
2026-04-20 01:53 18.48637 -69.78757 2480 ft 111 kts 297°
2026-04-20 01:53 18.48955 -69.79493 2488 ft 111 kts 297°
2026-04-20 01:53 18.49277 -69.80233 2493 ft 111 kts 297°
2026-04-20 01:54 18.49599 -69.80972 2492 ft 111 kts 297°
2026-04-20 01:54 18.49921 -69.81713 2495 ft 111 kts 297°
2026-04-20 01:54 18.49933 -69.81741 2493 ft 111 kts 297°
2026-04-20 02:08 18.50061 -69.82033 2491 ft 111 kts 298°
2026-04-20 02:08 18.50393 -69.82813 2504 ft 125 kts 296°
2026-04-20 02:08 18.50769 -69.83682 2502 ft 135 kts 297°
2026-04-20 02:09 18.51105 -69.84530 2497 ft 145 kts 283°
2026-04-20 02:09 18.51095 -69.85695 2510 ft 163 kts 267°
2026-04-20 02:09 18.51042 -69.86951 2507 ft 174 kts 268°
2026-04-20 02:09 18.50992 -69.88225 2503 ft 172 kts 268°
2026-04-20 02:10 18.50829 -69.89404 2486 ft 158 kts 243°
2026-04-20 02:10 18.50256 -69.90325 2484 ft 147 kts 233°
2026-04-20 02:10 18.49880 -69.90920 2485 ft 141 kts 235°
2026-04-20 02:10 18.49161 -69.92032 2482 ft 134 kts 234°
2026-04-20 02:11 18.48669 -69.92835 2482 ft 130 kts 235°
2026-04-20 02:11 18.48170 -69.93616 2422 ft 129 kts 232°
2026-04-20 02:11 18.47495 -69.94277 2027 ft 145 kts 213°
2026-04-20 02:11 18.46699 -69.94822 1879 ft 136 kts 202°
2026-04-20 02:12 18.45711 -69.94822 1420 ft 156 kts 188°
2026-04-20 02:12 18.45636 -69.95318 1295 ft 145 kts 330°
2026-04-20 02:12 18.46511 -69.95034 1131 ft 143 kts
2026-04-20 02:12 18.47376 -69.95448 1208 ft 138 kts 322°
2026-04-20 02:13 18.48148 -69.96079 1292 ft 142 kts 326°
2026-04-20 02:13 18.48974 -69.96684 1285 ft 148 kts 331°
2026-04-20 02:13 18.49898 -69.97175 1243 ft 153 kts 335°
2026-04-20 02:13 18.50839 -69.97662 1268 ft 150 kts 335°
2026-04-20 02:14 18.51771 -69.98130 1223 ft 150 kts 335°
2026-04-20 02:14 18.52670 -69.98610 1039 ft 140 kts 337°
2026-04-20 02:14 18.53518 -69.98932 845 ft 126 kts 346°
2026-04-20 02:14 18.54327 -69.98948 623 ft 124 kts
2026-04-20 02:15 18.55136 -69.98818 423 ft 115 kts
2026-04-20 02:15 18.55866 -69.98729 258 ft 99 kts
2026-04-20 02:15 18.56515 -69.98655 102 ft 87 kts
2026-04-20 02:15 18.57034 -69.98595 94 ft 61 kts
2026-04-20 02:16 18.57304 -69.98523 96 ft 29 kts 52°
2026-04-20 02:16 18.57445 -69.98399 98 ft 27 kts 35°
2026-04-20 02:16 18.57558 -69.98328 98 ft 14 kts 359°
2026-04-20 02:16 18.57616 -69.98297 98 ft 6 kts 95°
2026-04-20 02:17 18.57614 -69.98274 98 ft 0 kts 96°